STARLINK-11321 [DTC]

Last updated on Thu Nov 21 2024 00:02:05 GMT+0000 (Coordinated Universal Time)

1 61877U 24204D 24325.58335648 -.00516744 00000+0 -21823-2 0 9995 2 61877 53.1649 174.9326 0000603 78.7470 173.4418 15.85917739 3021
UTC large
Height (km)
Speed (km/s)
/
Latitude / Longitude
Inclination (degrees)
Orbital Period (minutes)
Azimuth
Elevation
Range (km)
Doppler Factor

Next 0 passes for location: London (51.5072 / 0.1276)

Sorry there are no passes over London.